This demonstration page uses our WeatherBlox Daily Observations layout. Learn more.

Left ArrowRight Arrow

Hourly Observations for March 25, 2022

Temp ( °F °C ) Dew Point ( °F °C ) Humidity (%) Winds ( mph kmh ) Pressure ( in mb ) Visibility ( mi km ) Precip ( " mm )
12:56 am 00:56 Clear 45 7.2 19 -7.2 35 35 WNW 8 13 29.98 1015 10 16 0.00 0.00
1:56 am 01:56 Clear 40 4.4 19 -7.2 43 43 NW 13 20 30.01 1016 10 16 0.00 0.00
2:56 am 02:56 Clear 44 6.7 23 -5 43 43 NNW 12 19 30.03 1017 10 16 0.00 0.00
3:56 am 03:56 Cloudy 47 8.3 30 -1.1 52 52 NNW 13 20 30.06 1018 10 16 0.00 0.00
4:56 am 04:56 Cloudy 46 7.8 32 0 58 58 N 14 22 30.10 1019 10 16 0.00 0.00
5:56 am 05:56 Cloudy 46 7.8 31 -0.6 56 56 NNW 22 35 30.12 1020 10 16 0.00 0.00
6:56 am 06:56 Cloudy 45 7.2 29 -1.7 54 54 NNW 18 30 30.17 1022 10 16 0.00 0.00
7:56 am 07:56 Cloudy 43 6.1 26 -3.3 51 51 N 20 31 30.20 1023 10 16 0.00 0.00
8:56 am 08:56 Cloudy 40 4.4 22 -5.6 49 49 N 18 30 30.23 1024 10 16 0.00 0.00
9:56 am 09:56 Cloudy 41 5 16 -8.9 36 36 N 21 33 30.25 1025 10 16 0.00 0.00
10:56 am 10:56 Cloudy 42 5.6 15 -9.4 33 33 NNW 20 31 30.26 1025 10 16 0.00 0.00
11:56 am 11:56 Sunny 48 8.9 16 -8.9 28 28 N 20 31 30.25 1024 10 16 0.00 0.00
12:56 pm 12:56 Sunny 51 10.6 14 -10 23 23 NNW 16 26 30.22 1024 10 16 0.00 0.00
1:56 pm 13:56 Sunny 53 11.7 10 -12.2 18 18 NNW 20 31 30.22 1023 10 16 0.00 0.00
2:56 pm 14:56 Sunny 55 12.8 9 -12.8 16 16 NNW 20 31 30.18 1022 10 16 0.00 0.00
3:56 pm 15:56 Sunny 56 13.3 7 -13.9 14 14 NW 20 31 30.14 1021 10 16 0.00 0.00
4:56 pm 16:56 Sunny 57 13.9 8 -13.3 14 14 NNW 20 31 30.13 1020 10 16 0.00 0.00
5:56 pm 17:56 Sunny 57 13.9 8 -13.3 14 14 NW 17 28 30.12 1020 10 16 0.00 0.00
6:56 pm 18:56 Sunny 56 13.3 8 -13.3 14 14 NNW 13 20 30.12 1020 10 16 0.00 0.00
7:56 pm 19:56 Clear 51 10.6 8 -13.3 17 17 NNW 7 11 30.13 1020 10 16 0.00 0.00
8:56 pm 20:56 Clear 47 8.3 7 -13.9 19 19 N 5 7 30.15 1021 10 16 0.00 0.00
9:56 pm 21:56 Clear 41 5 9 -12.8 27 27 N 3 6 30.16 1021 10 16 0.00 0.00
10:56 pm 22:56 Clear 41 5 9 -12.8 27 27 W 3 6 30.16 1021 10 16 0.00 0.00
11:56 pm 23:56 Clear 38 3.3 10 -12.2 31 31 N 5 7 30.15 1021 10 16 0.00 0.00

Powered by AerisWeather